Location: IoMAS Observatory
(54.1780°N, 4.6265°W)
Time: 17:44:27
(UTC+02:00)

ISS - Visible Passes

Search period start: 25 May 2020 00:00
Search period end: 04 June 2020 00:00
Orbit: 417 x 420 km, 51.6° (Epoch: 26 May)

Date Brightness Start Highest point End Pass type
(mag) Time Alt. Az. Time Alt. Az. Time Alt. Az.
25 May -2.9 00:43:05 10° W 00:46:10 33° SSW 00:47:36 23° SSE visible
25 May -3.2 23:55:17 10° W 23:58:29 41° SSW 00:01:21 12° SE visible
26 May -1.7 01:32:39 10° WSW 01:34:16 15° SW 01:34:16 15° SW visible
27 May -2.2 00:44:31 10° W 00:47:05 20° SSW 00:48:01 18° S visible
27 May -2.5 23:56:33 10° W 23:59:26 26° SSW 00:01:47 13° SSE visible
29 May -1.4 00:46:54 10° SW 00:47:48 11° SW 00:48:30 10° SSW visible
29 May -1.6 23:58:10 10° WSW 00:00:13 15° SW 00:02:16 10° S visible
